Data supplied by UK-AIR on 28/4/2018
All Data GMT hour ending 
Status: R =Ratified P=Provisional,P*=As supplied
,,Storrington Roadside,,,,,,,,,,,,,,,,,,,,,,,
Date,time,"PM<sub>10</sub> particulate matter (Hourly measured)",status,unit,"Nitric oxide",status,unit,"Nitrogen dioxide",status,unit,"Nitrogen oxides as nitrogen dioxide",status,unit,"Non-volatile PM<sub>10</sub> (Hourly measured)",status,unit,"Non-volatile PM<sub>2.5</sub> (Hourly measured)",status,unit,"PM<sub>2.5</sub> particulate matter (Hourly measured)",status,unit,"Volatile PM<sub>10</sub> (Hourly measured)",status,unit,"Volatile PM<sub>2.5</sub> (Hourly measured)",status,unit
 
01-01-2017,01:00,21.400,R,ugm-3 (TEOM FDMS),4.88360,R,ugm-3,7.17251,R,ugm-3,14.66059,R,ugm-3,13.200,R,ugm-3 (TEOM FDMS),10.900,R,ugm-3 (TEOM FDMS),20.000,R,ugm-3 (TEOM FDMS),8.200,R,ugm-3 (TEOM FDMS),9.100,R,ugm-3 (TEOM FDMS)
01-01-2017,02:00,20.300,R,ugm-3 (TEOM FDMS),3.40554,R,ugm-3,11.74785,R,ugm-3,16.96961,R,ugm-3,13.600,R,ugm-3 (TEOM FDMS),16.200,R,ugm-3 (TEOM FDMS),23.800,R,ugm-3 (TEOM FDMS),6.700,R,ugm-3 (TEOM FDMS),7.600,R,ugm-3 (TEOM FDMS)
01-01-2017,03:00,25.100,R,ugm-3 (TEOM FDMS),4.52396,R,ugm-3,13.34064,R,ugm-3,20.27728,R,ugm-3,17.100,R,ugm-3 (TEOM FDMS),15.200,R,ugm-3 (TEOM FDMS),22.500,R,ugm-3 (TEOM FDMS),8.000,R,ugm-3 (TEOM FDMS),7.300,R,ugm-3 (TEOM FDMS)
01-01-2017,04:00,24.800,R,ugm-3 (TEOM FDMS),1.87750,R,ugm-3,8.87974,R,ugm-3,11.75853,R,ugm-3,17.100,R,ugm-3 (TEOM FDMS),14.500,R,ugm-3 (TEOM FDMS),21.900,R,ugm-3 (TEOM FDMS),7.700,R,ugm-3 (TEOM FDMS),7.400,R,ugm-3 (TEOM FDMS)
01-01-2017,05:00,23.000,R,ugm-3 (TEOM FDMS),1.56973,R,ugm-3,7.01123,R,ugm-3,9.41811,R,ugm-3,16.500,R,ugm-3 (TEOM FDMS),14.800,R,ugm-3 (TEOM FDMS),21.500,R,ugm-3 (TEOM FDMS),6.500,R,ugm-3 (TEOM FDMS),6.700,R,ugm-3 (TEOM FDMS)
01-01-2017,06:00,17.500,R,ugm-3 (TEOM FDMS),1.23109,R,ugm-3,6.50059,R,ugm-3,8.38823,R,ugm-3,9.900,R,ugm-3 (TEOM FDMS),12.300,R,ugm-3 (TEOM FDMS),21.000,R,ugm-3 (TEOM FDMS),7.600,R,ugm-3 (TEOM FDMS),8.700,R,ugm-3 (TEOM FDMS)
01-01-2017,07:00,21.300,R,ugm-3 (TEOM FDMS),2.12384,R,ugm-3,7.28519,R,ugm-3,10.54170,R,ugm-3,14.300,R,ugm-3 (TEOM FDMS),10.100,R,ugm-3 (TEOM FDMS),16.600,R,ugm-3 (TEOM FDMS),7.000,R,ugm-3 (TEOM FDMS),6.500,R,ugm-3 (TEOM FDMS)
01-01-2017,08:00,24.300,R,ugm-3 (TEOM FDMS),1.93924,R,ugm-3,6.63159,R,ugm-3,9.60505,R,ugm-3,17.900,R,ugm-3 (TEOM FDMS),10.800,R,ugm-3 (TEOM FDMS),17.800,R,ugm-3 (TEOM FDMS),6.400,R,ugm-3 (TEOM FDMS),7.000,R,ugm-3 (TEOM FDMS)
01-01-2017,09:00,18.200,R,ugm-3 (TEOM FDMS),1.69290,R,ugm-3,5.41763,R,ugm-3,8.01338,R,ugm-3,11.700,R,ugm-3 (TEOM FDMS),5.600,R,ugm-3 (TEOM FDMS),11.900,R,ugm-3 (TEOM FDMS),6.500,R,ugm-3 (TEOM FDMS),6.300,R,ugm-3 (TEOM FDMS)
01-01-2017,10:00,14.300,R,ugm-3 (TEOM FDMS),1.87719,R,ugm-3,5.69734,R,ugm-3,8.57565,R,ugm-3,8.200,R,ugm-3 (TEOM FDMS),4.400,R,ugm-3 (TEOM FDMS),7.700,R,ugm-3 (TEOM FDMS),6.100,R,ugm-3 (TEOM FDMS),3.300,R,ugm-3 (TEOM FDMS)
01-01-2017,11:00,7.800,R,ugm-3 (TEOM FDMS),2.43161,R,ugm-3,6.48529,R,ugm-3,10.21371,R,ugm-3,5.200,R,ugm-3 (TEOM FDMS),1.100,R,ugm-3 (TEOM FDMS),5.100,R,ugm-3 (TEOM FDMS),2.600,R,ugm-3 (TEOM FDMS),4.000,R,ugm-3 (TEOM FDMS)
01-01-2017,12:00,8.000,R,ugm-3 (TEOM FDMS),4.92465,R,ugm-3,9.73032,R,ugm-3,17.28135,R,ugm-3,2.800,R,ugm-3 (TEOM FDMS),0.300,R,ugm-3 (TEOM FDMS),5.300,R,ugm-3 (TEOM FDMS),5.200,R,ugm-3 (TEOM FDMS),5.000,R,ugm-3 (TEOM FDMS)
01-01-2017,13:00,9.300,R,ugm-3 (TEOM FDMS),6.95588,R,ugm-3,12.04636,R,ugm-3,22.71189,R,ugm-3,4.100,R,ugm-3 (TEOM FDMS),0.500,R,ugm-3 (TEOM FDMS),5.800,R,ugm-3 (TEOM FDMS),5.200,R,ugm-3 (TEOM FDMS),5.300,R,ugm-3 (TEOM FDMS)
01-01-2017,14:00,9.900,R,ugm-3 (TEOM FDMS),4.70887,R,ugm-3,10.01433,R,ugm-3,17.23449,R,ugm-3,6.600,R,ugm-3 (TEOM FDMS),2.900,R,ugm-3 (TEOM FDMS),5.800,R,ugm-3 (TEOM FDMS),3.300,R,ugm-3 (TEOM FDMS),2.900,R,ugm-3 (TEOM FDMS)
01-01-2017,15:00,15.200,R,ugm-3 (TEOM FDMS),2.80050,R,ugm-3,6.94907,R,ugm-3,11.24311,R,ugm-3,10.600,R,ugm-3 (TEOM FDMS),8.000,R,ugm-3 (TEOM FDMS),9.800,R,ugm-3 (TEOM FDMS),4.600,R,ugm-3 (TEOM FDMS),1.800,R,ugm-3 (TEOM FDMS)
01-01-2017,16:00,17.500,R,ugm-3 (TEOM FDMS),2.70851,R,ugm-3,7.69877,R,ugm-3,11.85176,R,ugm-3,13.800,R,ugm-3 (TEOM FDMS),6.700,R,ugm-3 (TEOM FDMS),9.700,R,ugm-3 (TEOM FDMS),3.700,R,ugm-3 (TEOM FDMS),3.000,R,ugm-3 (TEOM FDMS)
01-01-2017,17:00,14.500,R,ugm-3 (TEOM FDMS),13.35734,R,ugm-3,22.40446,R,ugm-3,42.88542,R,ugm-3,11.400,R,ugm-3 (TEOM FDMS),7.200,R,ugm-3 (TEOM FDMS),9.700,R,ugm-3 (TEOM FDMS),3.100,R,ugm-3 (TEOM FDMS),2.500,R,ugm-3 (TEOM FDMS)
01-01-2017,18:00,6.800,R,ugm-3 (TEOM FDMS),11.91078,R,ugm-3,20.08221,R,ugm-3,38.34515,R,ugm-3,3.700,R,ugm-3 (TEOM FDMS),4.500,R,ugm-3 (TEOM FDMS),7.100,R,ugm-3 (TEOM FDMS),3.100,R,ugm-3 (TEOM FDMS),2.600,R,ugm-3 (TEOM FDMS)
01-01-2017,19:00,7.400,R,ugm-3 (TEOM FDMS),8.58704,R,ugm-3,19.65572,R,ugm-3,32.82233,R,ugm-3,3.600,R,ugm-3 (TEOM FDMS),3.600,R,ugm-3 (TEOM FDMS),6.300,R,ugm-3 (TEOM FDMS),3.800,R,ugm-3 (TEOM FDMS),2.700,R,ugm-3 (TEOM FDMS)
01-01-2017,20:00,3.700,R,ugm-3 (TEOM FDMS),7.94062,R,ugm-3,19.24214,R,ugm-3,31.41759,R,ugm-3,3.500,R,ugm-3 (TEOM FDMS),3.400,R,ugm-3 (TEOM FDMS),5.200,R,ugm-3 (TEOM FDMS),0.200,R,ugm-3 (TEOM FDMS),1.800,R,ugm-3 (TEOM FDMS)
01-01-2017,21:00,5.500,R,ugm-3 (TEOM FDMS),3.97047,R,ugm-3,11.38129,R,ugm-3,17.46925,R,ugm-3,4.200,R,ugm-3 (TEOM FDMS),4.000,R,ugm-3 (TEOM FDMS),5.700,R,ugm-3 (TEOM FDMS),1.300,R,ugm-3 (TEOM FDMS),1.700,R,ugm-3 (TEOM FDMS)
01-01-2017,22:00,6.000,R,ugm-3 (TEOM FDMS),3.97016,R,ugm-3,11.75566,R,ugm-3,17.84315,R,ugm-3,4.100,R,ugm-3 (TEOM FDMS),4.600,R,ugm-3 (TEOM FDMS),6.500,R,ugm-3 (TEOM FDMS),1.900,R,ugm-3 (TEOM FDMS),1.900,R,ugm-3 (TEOM FDMS)
01-01-2017,23:00,5.300,R,ugm-3 (TEOM FDMS),2.80081,R,ugm-3,9.00788,R,ugm-3,13.30239,R,ugm-3,4.700,R,ugm-3 (TEOM FDMS),3.700,R,ugm-3 (TEOM FDMS),4.400,R,ugm-3 (TEOM FDMS),0.600,R,ugm-3 (TEOM FDMS),0.700,R,ugm-3 (TEOM FDMS)
01-01-2017,24:00,5.400,R,ugm-3 (TEOM FDMS),2.64677,R,ugm-3,9.57254,R,ugm-3,13.63087,R,ugm-3,4.800,R,ugm-3 (TEOM FDMS),4.600,R,ugm-3 (TEOM FDMS),7.000,R,ugm-3 (TEOM FDMS),0.600,R,ugm-3 (TEOM FDMS),2.400,R,ugm-3 (TEOM FDMS)
02-01-2017,01:00,10.700,R,ugm-3 (TEOM FDMS),3.20099,R,ugm-3,12.06086,R,ugm-3,16.96898,R,ugm-3,8.700,R,ugm-3 (TEOM FDMS),3.500,R,ugm-3 (TEOM FDMS),6.300,R,ugm-3 (TEOM FDMS),2.000,R,ugm-3 (TEOM FDMS),2.800,R,ugm-3 (TEOM FDMS)
02-01-2017,02:00,9.100,R,ugm-3 (TEOM FDMS),1.10802,R,ugm-3,11.40105,R,ugm-3,13.09999,R,ugm-3,9.400,R,ugm-3 (TEOM FDMS),5.500,R,ugm-3 (TEOM FDMS),7.200,R,ugm-3 (TEOM FDMS),-0.300,R,ugm-3 (TEOM FDMS),1.700,R,ugm-3 (TEOM FDMS)
02-01-2017,03:00,9.600,R,ugm-3 (TEOM FDMS),1.04649,R,ugm-3,10.10708,R,ugm-3,11.71167,R,ugm-3,7.600,R,ugm-3 (TEOM FDMS),3.900,R,ugm-3 (TEOM FDMS),5.200,R,ugm-3 (TEOM FDMS),2.000,R,ugm-3 (TEOM FDMS),1.300,R,ugm-3 (TEOM FDMS)
02-01-2017,04:00,11.400,R,ugm-3 (TEOM FDMS),1.16934,R,ugm-3,9.96508,R,ugm-3,11.75805,R,ugm-3,7.900,R,ugm-3 (TEOM FDMS),3.600,R,ugm-3 (TEOM FDMS),7.100,R,ugm-3 (TEOM FDMS),3.500,R,ugm-3 (TEOM FDMS),3.500,R,ugm-3 (TEOM FDMS)
02-01-2017,05:00,9.900,R,ugm-3 (TEOM FDMS),2.83137,R,ugm-3,10.69374,R,ugm-3,15.03512,R,ugm-3,8.200,R,ugm-3 (TEOM FDMS),2.400,R,ugm-3 (TEOM FDMS),3.700,R,ugm-3 (TEOM FDMS),1.700,R,ugm-3 (TEOM FDMS),1.300,R,ugm-3 (TEOM FDMS)
02-01-2017,06:00,9.300,R,ugm-3 (TEOM FDMS),4.03159,R,ugm-3,13.11258,R,ugm-3,19.29426,R,ugm-3,6.900,R,ugm-3 (TEOM FDMS),3.200,R,ugm-3 (TEOM FDMS),6.500,R,ugm-3 (TEOM FDMS),2.400,R,ugm-3 (TEOM FDMS),3.300,R,ugm-3 (TEOM FDMS)
02-01-2017,07:00,10.700,R,ugm-3 (TEOM FDMS),18.06589,R,ugm-3,30.21081,R,ugm-3,57.91146,R,ugm-3,9.600,R,ugm-3 (TEOM FDMS),5.300,R,ugm-3 (TEOM FDMS),8.100,R,ugm-3 (TEOM FDMS),1.100,R,ugm-3 (TEOM FDMS),2.800,R,ugm-3 (TEOM FDMS)
02-01-2017,08:00,17.000,R,ugm-3 (TEOM FDMS),67.98658,R,ugm-3,51.30903,R,ugm-3,155.55367,R,ugm-3,12.700,R,ugm-3 (TEOM FDMS),6.400,R,ugm-3 (TEOM FDMS),7.600,R,ugm-3 (TEOM FDMS),4.300,R,ugm-3 (TEOM FDMS),1.200,R,ugm-3 (TEOM FDMS)
02-01-2017,09:00,,,,69.89495,R,ugm-3,53.76611,R,ugm-3,160.93688,R,ugm-3,,,,,,,,,,,,,,,
02-01-2017,10:00,,,,63.86207,R,ugm-3,50.23707,R,ugm-3,148.15755,R,ugm-3,,,,,,,,,,,,,,,
02-01-2017,11:00,14.900,R,ugm-3 (TEOM FDMS),37.48635,R,ugm-3,41.57775,R,ugm-3,99.05603,R,ugm-3,15.400,R,ugm-3 (TEOM FDMS),7.100,R,ugm-3 (TEOM FDMS),8.200,R,ugm-3 (TEOM FDMS),-0.500,R,ugm-3 (TEOM FDMS),1.100,R,ugm-3 (TEOM FDMS)
02-01-2017,12:00,18.500,R,ugm-3 (TEOM FDMS),35.45544,R,ugm-3,34.29973,R,ugm-3,88.66398,R,ugm-3,14.800,R,ugm-3 (TEOM FDMS),4.500,R,ugm-3 (TEOM FDMS),7.600,R,ugm-3 (TEOM FDMS),3.700,R,ugm-3 (TEOM FDMS),3.100,R,ugm-3 (TEOM FDMS)
02-01-2017,13:00,17.500,R,ugm-3 (TEOM FDMS),36.16328,R,ugm-3,32.93421,R,ugm-3,88.38380,R,ugm-3,13.400,R,ugm-3 (TEOM FDMS),7.600,R,ugm-3 (TEOM FDMS),11.600,R,ugm-3 (TEOM FDMS),4.100,R,ugm-3 (TEOM FDMS),4.000,R,ugm-3 (TEOM FDMS)
02-01-2017,14:00,18.700,R,ugm-3 (TEOM FDMS),30.89999,R,ugm-3,40.86391,R,ugm-3,88.24323,R,ugm-3,14.000,R,ugm-3 (TEOM FDMS),6.300,R,ugm-3 (TEOM FDMS),11.200,R,ugm-3 (TEOM FDMS),4.700,R,ugm-3 (TEOM FDMS),4.900,R,ugm-3 (TEOM FDMS)
02-01-2017,15:00,21.600,R,ugm-3 (TEOM FDMS),45.21151,R,ugm-3,49.01738,R,ugm-3,118.34072,R,ugm-3,18.500,R,ugm-3 (TEOM FDMS),8.800,R,ugm-3 (TEOM FDMS),11.700,R,ugm-3 (TEOM FDMS),3.100,R,ugm-3 (TEOM FDMS),2.900,R,ugm-3 (TEOM FDMS)
02-01-2017,16:00,21.700,R,ugm-3 (TEOM FDMS),74.60382,R,ugm-3,54.59662,R,ugm-3,168.98754,R,ugm-3,21.000,R,ugm-3 (TEOM FDMS),10.800,R,ugm-3 (TEOM FDMS),13.900,R,ugm-3 (TEOM FDMS),0.700,R,ugm-3 (TEOM FDMS),3.100,R,ugm-3 (TEOM FDMS)
02-01-2017,17:00,31.700,R,ugm-3 (TEOM FDMS),182.20091,R,ugm-3,80.36086,R,ugm-3,359.73169,R,ugm-3,29.500,R,ugm-3 (TEOM FDMS),20.000,R,ugm-3 (TEOM FDMS),23.100,R,ugm-3 (TEOM FDMS),2.200,R,ugm-3 (TEOM FDMS),3.200,R,ugm-3 (TEOM FDMS)
02-01-2017,18:00,40.000,R,ugm-3 (TEOM FDMS),148.37663,R,ugm-3,77.64559,R,ugm-3,305.15324,R,ugm-3,34.200,R,ugm-3 (TEOM FDMS),28.000,R,ugm-3 (TEOM FDMS),32.900,R,ugm-3 (TEOM FDMS),5.800,R,ugm-3 (TEOM FDMS),5.000,R,ugm-3 (TEOM FDMS)
02-01-2017,19:00,33.900,R,ugm-3 (TEOM FDMS),101.34905,R,ugm-3,59.46010,R,ugm-3,214.85981,R,ugm-3,34.300,R,ugm-3 (TEOM FDMS),31.400,R,ugm-3 (TEOM FDMS),37.400,R,ugm-3 (TEOM FDMS),-0.400,R,ugm-3 (TEOM FDMS),6.100,R,ugm-3 (TEOM FDMS)
02-01-2017,20:00,27.800,R,ugm-3 (TEOM FDMS),47.70486,R,ugm-3,43.04129,R,ugm-3,116.18772,R,ugm-3,26.400,R,ugm-3 (TEOM FDMS),20.800,R,ugm-3 (TEOM FDMS),25.300,R,ugm-3 (TEOM FDMS),1.400,R,ugm-3 (TEOM FDMS),4.600,R,ugm-3 (TEOM FDMS)
02-01-2017,21:00,38.400,R,ugm-3 (TEOM FDMS),59.33874,R,ugm-3,44.95570,R,ugm-3,135.94050,R,ugm-3,33.200,R,ugm-3 (TEOM FDMS),28.300,R,ugm-3 (TEOM FDMS),33.500,R,ugm-3 (TEOM FDMS),5.200,R,ugm-3 (TEOM FDMS),5.300,R,ugm-3 (TEOM FDMS)
02-01-2017,22:00,28.900,R,ugm-3 (TEOM FDMS),61.70830,R,ugm-3,47.78238,R,ugm-3,142.40045,R,ugm-3,24.500,R,ugm-3 (TEOM FDMS),18.600,R,ugm-3 (TEOM FDMS),22.800,R,ugm-3 (TEOM FDMS),4.400,R,ugm-3 (TEOM FDMS),4.300,R,ugm-3 (TEOM FDMS)
02-01-2017,23:00,24.400,R,ugm-3 (TEOM FDMS),47.18131,R,ugm-3,34.15486,R,ugm-3,106.49852,R,ugm-3,19.800,R,ugm-3 (TEOM FDMS),14.300,R,ugm-3 (TEOM FDMS),18.900,R,ugm-3 (TEOM FDMS),4.600,R,ugm-3 (TEOM FDMS),4.600,R,ugm-3 (TEOM FDMS)
02-01-2017,24:00,22.700,R,ugm-3 (TEOM FDMS),26.92983,R,ugm-3,29.63275,R,ugm-3,70.92458,R,ugm-3,20.600,R,ugm-3 (TEOM FDMS),18.100,R,ugm-3 (TEOM FDMS),21.600,R,ugm-3 (TEOM FDMS),2.100,R,ugm-3 (TEOM FDMS),3.600,R,ugm-3 (TEOM FDMS)
03-01-2017,01:00,,,,17.97359,R,ugm-3,28.16794,R,ugm-3,55.72706,R,ugm-3,,,,12.100,R,ugm-3 (TEOM FDMS),16.900,R,ugm-3 (TEOM FDMS),,,,4.800,R,ugm-3 (TEOM FDMS)
03-01-2017,02:00,,,,7.79687,R,ugm-3,17.99599,R,ugm-3,29.95103,R,ugm-3,,,,6.700,R,ugm-3 (TEOM FDMS),9.700,R,ugm-3 (TEOM FDMS),,,,3.000,R,ugm-3 (TEOM FDMS)
03-01-2017,03:00,,,,3.63183,R,ugm-3,13.53859,R,ugm-3,19.10731,R,ugm-3,,,,6.300,R,ugm-3 (TEOM FDMS),9.300,R,ugm-3 (TEOM FDMS),,,,3.000,R,ugm-3 (TEOM FDMS)
03-01-2017,04:00,10.600,R,ugm-3 (TEOM FDMS),13.14187,R,ugm-3,19.69301,R,ugm-3,39.84359,R,ugm-3,7.600,R,ugm-3 (TEOM FDMS),5.700,R,ugm-3 (TEOM FDMS),9.400,R,ugm-3 (TEOM FDMS),3.000,R,ugm-3 (TEOM FDMS),3.700,R,ugm-3 (TEOM FDMS)
03-01-2017,05:00,,,,64.26277,R,ugm-3,38.34228,R,ugm-3,136.87715,R,ugm-3,,,,4.400,R,ugm-3 (TEOM FDMS),8.500,R,ugm-3 (TEOM FDMS),,,,4.100,R,ugm-3 (TEOM FDMS)
03-01-2017,06:00,14.000,R,ugm-3 (TEOM FDMS),134.18859,R,ugm-3,53.20049,R,ugm-3,258.95346,R,ugm-3,11.200,R,ugm-3 (TEOM FDMS),8.300,R,ugm-3 (TEOM FDMS),11.700,R,ugm-3 (TEOM FDMS),2.800,R,ugm-3 (TEOM FDMS),3.400,R,ugm-3 (TEOM FDMS)
03-01-2017,07:00,22.300,R,ugm-3 (TEOM FDMS),257.91233,R,ugm-3,87.75267,R,ugm-3,483.21273,R,ugm-3,20.600,R,ugm-3 (TEOM FDMS),13.100,R,ugm-3 (TEOM FDMS),17.500,R,ugm-3 (TEOM FDMS),1.700,R,ugm-3 (TEOM FDMS),4.400,R,ugm-3 (TEOM FDMS)
03-01-2017,08:00,34.300,R,ugm-3 (TEOM FDMS),268.93067,R,ugm-3,90.89204,R,ugm-3,503.24664,R,ugm-3,32.800,R,ugm-3 (TEOM FDMS),17.400,R,ugm-3 (TEOM FDMS),19.800,R,ugm-3 (TEOM FDMS),1.500,R,ugm-3 (TEOM FDMS),2.500,R,ugm-3 (TEOM FDMS)
03-01-2017,09:00,31.900,R,ugm-3 (TEOM FDMS),256.71211,R,ugm-3,76.53347,R,ugm-3,470.15322,R,ugm-3,27.400,R,ugm-3 (TEOM FDMS),15.900,R,ugm-3 (TEOM FDMS),19.600,R,ugm-3 (TEOM FDMS),4.500,R,ugm-3 (TEOM FDMS),3.700,R,ugm-3 (TEOM FDMS)
03-01-2017,10:00,29.800,R,ugm-3 (TEOM FDMS),181.95425,R,ugm-3,68.05440,R,ugm-3,347.04703,R,ugm-3,27.200,R,ugm-3 (TEOM FDMS),14.900,R,ugm-3 (TEOM FDMS),17.400,R,ugm-3 (TEOM FDMS),2.600,R,ugm-3 (TEOM FDMS),2.500,R,ugm-3 (TEOM FDMS)
03-01-2017,11:00,20.700,R,ugm-3 (TEOM FDMS),53.67506,R,ugm-3,46.94709,R,ugm-3,129.24771,R,ugm-3,16.500,R,ugm-3 (TEOM FDMS),7.600,R,ugm-3 (TEOM FDMS),9.100,R,ugm-3 (TEOM FDMS),4.200,R,ugm-3 (TEOM FDMS),1.500,R,ugm-3 (TEOM FDMS)
03-01-2017,12:00,14.700,R,ugm-3 (TEOM FDMS),35.42426,R,ugm-3,33.45919,R,ugm-3,87.77562,R,ugm-3,13.000,R,ugm-3 (TEOM FDMS),7.100,R,ugm-3 (TEOM FDMS),10.100,R,ugm-3 (TEOM FDMS),1.700,R,ugm-3 (TEOM FDMS),3.000,R,ugm-3 (TEOM FDMS)
03-01-2017,13:00,21.700,R,ugm-3 (TEOM FDMS),28.31465,R,ugm-3,36.35615,R,ugm-3,79.77133,R,ugm-3,17.200,R,ugm-3 (TEOM FDMS),9.800,R,ugm-3 (TEOM FDMS),15.200,R,ugm-3 (TEOM FDMS),4.500,R,ugm-3 (TEOM FDMS),5.400,R,ugm-3 (TEOM FDMS)
03-01-2017,14:00,19.200,R,ugm-3 (TEOM FDMS),36.74795,R,ugm-3,39.19908,R,ugm-3,95.54515,R,ugm-3,11.600,R,ugm-3 (TEOM FDMS),4.700,R,ugm-3 (TEOM FDMS),9.000,R,ugm-3 (TEOM FDMS),7.600,R,ugm-3 (TEOM FDMS),4.300,R,ugm-3 (TEOM FDMS)
03-01-2017,15:00,15.800,R,ugm-3 (TEOM FDMS),35.79377,R,ugm-3,41.97364,R,ugm-3,96.85665,R,ugm-3,13.100,R,ugm-3 (TEOM FDMS),6.200,R,ugm-3 (TEOM FDMS),9.000,R,ugm-3 (TEOM FDMS),2.700,R,ugm-3 (TEOM FDMS),2.800,R,ugm-3 (TEOM FDMS)
03-01-2017,16:00,17.700,R,ugm-3 (TEOM FDMS),41.54912,R,ugm-3,50.93561,R,ugm-3,114.64338,R,ugm-3,13.800,R,ugm-3 (TEOM FDMS),10.400,R,ugm-3 (TEOM FDMS),16.000,R,ugm-3 (TEOM FDMS),3.900,R,ugm-3 (TEOM FDMS),5.600,R,ugm-3 (TEOM FDMS)
03-01-2017,17:00,18.200,R,ugm-3 (TEOM FDMS),45.51928,R,ugm-3,43.02264,R,ugm-3,112.81790,R,ugm-3,14.300,R,ugm-3 (TEOM FDMS),9.800,R,ugm-3 (TEOM FDMS),12.800,R,ugm-3 (TEOM FDMS),3.900,R,ugm-3 (TEOM FDMS),3.000,R,ugm-3 (TEOM FDMS)
03-01-2017,18:00,18.100,R,ugm-3 (TEOM FDMS),28.34583,R,ugm-3,40.23996,R,ugm-3,83.70295,R,ugm-3,13.500,R,ugm-3 (TEOM FDMS),8.800,R,ugm-3 (TEOM FDMS),11.800,R,ugm-3 (TEOM FDMS),4.600,R,ugm-3 (TEOM FDMS),3.000,R,ugm-3 (TEOM FDMS)
03-01-2017,19:00,17.100,R,ugm-3 (TEOM FDMS),26.03770,R,ugm-3,46.25955,R,ugm-3,86.18347,R,ugm-3,15.100,R,ugm-3 (TEOM FDMS),11.000,R,ugm-3 (TEOM FDMS),13.900,R,ugm-3 (TEOM FDMS),2.000,R,ugm-3 (TEOM FDMS),2.900,R,ugm-3 (TEOM FDMS)
03-01-2017,20:00,22.900,R,ugm-3 (TEOM FDMS),10.27962,R,ugm-3,31.43050,R,ugm-3,47.19237,R,ugm-3,18.900,R,ugm-3 (TEOM FDMS),13.900,R,ugm-3 (TEOM FDMS),19.100,R,ugm-3 (TEOM FDMS),4.000,R,ugm-3 (TEOM FDMS),5.200,R,ugm-3 (TEOM FDMS)
03-01-2017,21:00,15.000,R,ugm-3 (TEOM FDMS),4.89378,R,ugm-3,23.54001,R,ugm-3,31.04370,R,ugm-3,11.200,R,ugm-3 (TEOM FDMS),7.200,R,ugm-3 (TEOM FDMS),10.900,R,ugm-3 (TEOM FDMS),3.800,R,ugm-3 (TEOM FDMS),3.700,R,ugm-3 (TEOM FDMS)
03-01-2017,22:00,18.200,R,ugm-3 (TEOM FDMS),9.87986,R,ugm-3,26.56654,R,ugm-3,41.71545,R,ugm-3,16.100,R,ugm-3 (TEOM FDMS),10.700,R,ugm-3 (TEOM FDMS),16.500,R,ugm-3 (TEOM FDMS),2.100,R,ugm-3 (TEOM FDMS),5.800,R,ugm-3 (TEOM FDMS)
03-01-2017,23:00,11.700,R,ugm-3 (TEOM FDMS),4.98577,R,ugm-3,19.42000,R,ugm-3,27.06474,R,ugm-3,10.600,R,ugm-3 (TEOM FDMS),8.600,R,ugm-3 (TEOM FDMS),13.200,R,ugm-3 (TEOM FDMS),1.100,R,ugm-3 (TEOM FDMS),4.600,R,ugm-3 (TEOM FDMS)
03-01-2017,24:00,14.200,R,ugm-3 (TEOM FDMS),4.06277,R,ugm-3,12.78411,R,ugm-3,19.01360,R,ugm-3,9.600,R,ugm-3 (TEOM FDMS),7.300,R,ugm-3 (TEOM FDMS),12.100,R,ugm-3 (TEOM FDMS),4.600,R,ugm-3 (TEOM FDMS),4.800,R,ugm-3 (TEOM FDMS)
04-01-2017,01:00,12.400,R,ugm-3 (TEOM FDMS),1.39531,R,ugm-3,8.08924,R,ugm-3,10.22869,R,ugm-3,7.500,R,ugm-3 (TEOM FDMS),2.100,R,ugm-3 (TEOM FDMS),5.800,R,ugm-3 (TEOM FDMS),4.900,R,ugm-3 (TEOM FDMS),3.700,R,ugm-3 (TEOM FDMS)
04-01-2017,02:00,9.600,R,ugm-3 (TEOM FDMS),0.69766,R,ugm-3,5.66419,R,ugm-3,6.73391,R,ugm-3,5.300,R,ugm-3 (TEOM FDMS),4.100,R,ugm-3 (TEOM FDMS),8.500,R,ugm-3 (TEOM FDMS),4.300,R,ugm-3 (TEOM FDMS),4.400,R,ugm-3 (TEOM FDMS)
04-01-2017,03:00,6.700,R,ugm-3 (TEOM FDMS),0.70784,R,ugm-3,4.35381,R,ugm-3,5.43915,R,ugm-3,5.200,R,ugm-3 (TEOM FDMS),5.500,R,ugm-3 (TEOM FDMS),8.300,R,ugm-3 (TEOM FDMS),1.500,R,ugm-3 (TEOM FDMS),2.800,R,ugm-3 (TEOM FDMS)
04-01-2017,04:00,5.100,R,ugm-3 (TEOM FDMS),1.10823,R,ugm-3,4.95672,R,ugm-3,6.65598,R,ugm-3,4.700,R,ugm-3 (TEOM FDMS),3.900,R,ugm-3 (TEOM FDMS),7.800,R,ugm-3 (TEOM FDMS),0.400,R,ugm-3 (TEOM FDMS),3.900,R,ugm-3 (TEOM FDMS)
04-01-2017,05:00,10.500,R,ugm-3 (TEOM FDMS),3.93960,R,ugm-3,7.73033,R,ugm-3,13.77096,R,ugm-3,4.300,R,ugm-3 (TEOM FDMS),2.900,R,ugm-3 (TEOM FDMS),5.400,R,ugm-3 (TEOM FDMS),6.200,R,ugm-3 (TEOM FDMS),2.500,R,ugm-3 (TEOM FDMS)
04-01-2017,06:00,8.600,R,ugm-3 (TEOM FDMS),29.70008,R,ugm-3,30.95525,R,ugm-3,76.49474,R,ugm-3,6.500,R,ugm-3 (TEOM FDMS),3.900,R,ugm-3 (TEOM FDMS),6.800,R,ugm-3 (TEOM FDMS),2.100,R,ugm-3 (TEOM FDMS),2.900,R,ugm-3 (TEOM FDMS)
04-01-2017,07:00,12.000,R,ugm-3 (TEOM FDMS),42.50300,R,ugm-3,42.17063,R,ugm-3,107.34098,R,ugm-3,10.200,R,ugm-3 (TEOM FDMS),6.200,R,ugm-3 (TEOM FDMS),9.600,R,ugm-3 (TEOM FDMS),1.800,R,ugm-3 (TEOM FDMS),3.400,R,ugm-3 (TEOM FDMS)
04-01-2017,08:00,15.700,R,ugm-3 (TEOM FDMS),81.31336,R,ugm-3,51.28369,R,ugm-3,175.96243,R,ugm-3,11.100,R,ugm-3 (TEOM FDMS),6.200,R,ugm-3 (TEOM FDMS),9.900,R,ugm-3 (TEOM FDMS),4.600,R,ugm-3 (TEOM FDMS),3.700,R,ugm-3 (TEOM FDMS)
04-01-2017,09:00,11.100,R,ugm-3 (TEOM FDMS),47.73542,R,ugm-3,48.61097,R,ugm-3,121.80426,R,ugm-3,10.300,R,ugm-3 (TEOM FDMS),6.600,R,ugm-3 (TEOM FDMS),8.700,R,ugm-3 (TEOM FDMS),0.800,R,ugm-3 (TEOM FDMS),2.100,R,ugm-3 (TEOM FDMS)
04-01-2017,10:00,11.200,R,ugm-3 (TEOM FDMS),53.18331,R,ugm-3,41.05420,R,ugm-3,122.60081,R,ugm-3,10.400,R,ugm-3 (TEOM FDMS),6.800,R,ugm-3 (TEOM FDMS),8.700,R,ugm-3 (TEOM FDMS),0.800,R,ugm-3 (TEOM FDMS),1.900,R,ugm-3 (TEOM FDMS)
04-01-2017,11:00,10.700,R,ugm-3 (TEOM FDMS),41.61086,R,ugm-3,51.73026,R,ugm-3,115.53269,R,ugm-3,10.500,R,ugm-3 (TEOM FDMS),6.600,R,ugm-3 (TEOM FDMS),8.600,R,ugm-3 (TEOM FDMS),0.200,R,ugm-3 (TEOM FDMS),2.000,R,ugm-3 (TEOM FDMS)
04-01-2017,12:00,13.400,R,ugm-3 (TEOM FDMS),47.76629,R,ugm-3,40.46611,R,ugm-3,113.70673,R,ugm-3,8.800,R,ugm-3 (TEOM FDMS),7.700,R,ugm-3 (TEOM FDMS),9.900,R,ugm-3 (TEOM FDMS),4.600,R,ugm-3 (TEOM FDMS),2.200,R,ugm-3 (TEOM FDMS)
04-01-2017,13:00,11.100,R,ugm-3 (TEOM FDMS),34.83958,R,ugm-3,34.72957,R,ugm-3,88.14952,R,ugm-3,7.300,R,ugm-3 (TEOM FDMS),4.800,R,ugm-3 (TEOM FDMS),6.300,R,ugm-3 (TEOM FDMS),3.800,R,ugm-3 (TEOM FDMS),1.500,R,ugm-3 (TEOM FDMS)
04-01-2017,14:00,11.700,R,ugm-3 (TEOM FDMS),44.75001,R,ugm-3,38.63154,R,ugm-3,107.24726,R,ugm-3,7.500,R,ugm-3 (TEOM FDMS),7.600,R,ugm-3 (TEOM FDMS),10.900,R,ugm-3 (TEOM FDMS),4.200,R,ugm-3 (TEOM FDMS),3.300,R,ugm-3 (TEOM FDMS)
04-01-2017,15:00,42.700,R,ugm-3 (TEOM FDMS),55.12193,R,ugm-3,46.69417,R,ugm-3,131.21328,R,ugm-3,38.500,R,ugm-3 (TEOM FDMS),9.600,R,ugm-3 (TEOM FDMS),11.800,R,ugm-3 (TEOM FDMS),4.200,R,ugm-3 (TEOM FDMS),2.200,R,ugm-3 (TEOM FDMS)
04-01-2017,16:00,54.800,R,ugm-3 (TEOM FDMS),82.02120,R,ugm-3,59.32623,R,ugm-3,185.09032,R,ugm-3,53.100,R,ugm-3 (TEOM FDMS),14.100,R,ugm-3 (TEOM FDMS),16.700,R,ugm-3 (TEOM FDMS),1.700,R,ugm-3 (TEOM FDMS),2.600,R,ugm-3 (TEOM FDMS)
04-01-2017,17:00,50.300,R,ugm-3 (TEOM FDMS),82.54444,R,ugm-3,63.43810,R,ugm-3,190.00448,R,ugm-3,48.300,R,ugm-3 (TEOM FDMS),19.400,R,ugm-3 (TEOM FDMS),22.600,R,ugm-3 (TEOM FDMS),2.000,R,ugm-3 (TEOM FDMS),3.300,R,ugm-3 (TEOM FDMS)
04-01-2017,18:00,47.800,R,ugm-3 (TEOM FDMS),86.91467,R,ugm-3,75.08618,R,ugm-3,208.35349,R,ugm-3,46.300,R,ugm-3 (TEOM FDMS),13.900,R,ugm-3 (TEOM FDMS),16.100,R,ugm-3 (TEOM FDMS),1.500,R,ugm-3 (TEOM FDMS),2.200,R,ugm-3 (TEOM FDMS)
04-01-2017,19:00,45.900,R,ugm-3 (TEOM FDMS),54.04457,R,ugm-3,56.06972,R,ugm-3,138.93691,R,ugm-3,43.800,R,ugm-3 (TEOM FDMS),15.000,R,ugm-3 (TEOM FDMS),17.300,R,ugm-3 (TEOM FDMS),2.100,R,ugm-3 (TEOM FDMS),2.300,R,ugm-3 (TEOM FDMS)
04-01-2017,20:00,47.700,R,ugm-3 (TEOM FDMS),101.44135,R,ugm-3,79.91477,R,ugm-3,235.45600,R,ugm-3,48.500,R,ugm-3 (TEOM FDMS),30.800,R,ugm-3 (TEOM FDMS),34.800,R,ugm-3 (TEOM FDMS),-0.800,R,ugm-3 (TEOM FDMS),4.100,R,ugm-3 (TEOM FDMS)
04-01-2017,21:00,37.200,R,ugm-3 (TEOM FDMS),50.53623,R,ugm-3,56.53446,R,ugm-3,134.02226,R,ugm-3,33.600,R,ugm-3 (TEOM FDMS),23.500,R,ugm-3 (TEOM FDMS),27.300,R,ugm-3 (TEOM FDMS),3.600,R,ugm-3 (TEOM FDMS),3.900,R,ugm-3 (TEOM FDMS)
04-01-2017,22:00,42.300,R,ugm-3 (TEOM FDMS),92.23877,R,ugm-3,57.79527,R,ugm-3,199.22608,R,ugm-3,36.400,R,ugm-3 (TEOM FDMS),34.900,R,ugm-3 (TEOM FDMS),37.900,R,ugm-3 (TEOM FDMS),5.900,R,ugm-3 (TEOM FDMS),3.100,R,ugm-3 (TEOM FDMS)
04-01-2017,23:00,,,,47.33504,R,ugm-3,43.32769,R,ugm-3,115.90706,R,ugm-3,,,,,,,,,,,,,,,
04-01-2017,24:00,,,,43.39575,R,ugm-3,47.72931,R,ugm-3,114.26853,R,ugm-3,,,,,,,,,,,,,,,
05-01-2017,01:00,23.100,R,ugm-3 (TEOM FDMS),23.48999,R,ugm-3,37.18474,R,ugm-3,73.20221,R,ugm-3,19.800,R,ugm-3 (TEOM FDMS),12.800,R,ugm-3 (TEOM FDMS),16.200,R,ugm-3 (TEOM FDMS),3.300,R,ugm-3 (TEOM FDMS),3.400,R,ugm-3 (TEOM FDMS)
05-01-2017,02:00,17.200,R,ugm-3 (TEOM FDMS),6.43607,R,ugm-3,28.88258,R,ugm-3,38.75108,R,ugm-3,16.300,R,ugm-3 (TEOM FDMS),10.400,R,ugm-3 (TEOM FDMS),14.200,R,ugm-3 (TEOM FDMS),0.900,R,ugm-3 (TEOM FDMS),3.800,R,ugm-3 (TEOM FDMS)
05-01-2017,03:00,14.100,R,ugm-3 (TEOM FDMS),3.75094,R,ugm-3,23.88808,R,ugm-3,29.63945,R,ugm-3,14.000,R,ugm-3 (TEOM FDMS),8.800,R,ugm-3 (TEOM FDMS),12.300,R,ugm-3 (TEOM FDMS),0.100,R,ugm-3 (TEOM FDMS),3.500,R,ugm-3 (TEOM FDMS)
05-01-2017,04:00,19.100,R,ugm-3 (TEOM FDMS),11.77576,R,ugm-3,26.28062,R,ugm-3,44.33653,R,ugm-3,15.200,R,ugm-3 (TEOM FDMS),8.400,R,ugm-3 (TEOM FDMS),11.900,R,ugm-3 (TEOM FDMS),3.900,R,ugm-3 (TEOM FDMS),3.500,R,ugm-3 (TEOM FDMS)
05-01-2017,05:00,17.300,R,ugm-3 (TEOM FDMS),41.84504,R,ugm-3,38.45225,R,ugm-3,102.61375,R,ugm-3,14.600,R,ugm-3 (TEOM FDMS),9.800,R,ugm-3 (TEOM FDMS),13.400,R,ugm-3 (TEOM FDMS),2.700,R,ugm-3 (TEOM FDMS),3.600,R,ugm-3 (TEOM FDMS)
05-01-2017,06:00,17.800,R,ugm-3 (TEOM FDMS),157.17352,R,ugm-3,56.43405,R,ugm-3,297.43009,R,ugm-3,16.100,R,ugm-3 (TEOM FDMS),11.900,R,ugm-3 (TEOM FDMS),14.500,R,ugm-3 (TEOM FDMS),1.700,R,ugm-3 (TEOM FDMS),2.600,R,ugm-3 (TEOM FDMS)
05-01-2017,07:00,28.700,R,ugm-3 (TEOM FDMS),339.77356,R,ugm-3,90.20832,R,ugm-3,611.18719,R,ugm-3,25.300,R,ugm-3 (TEOM FDMS),17.800,R,ugm-3 (TEOM FDMS),20.800,R,ugm-3 (TEOM FDMS),3.400,R,ugm-3 (TEOM FDMS),3.100,R,ugm-3 (TEOM FDMS)
05-01-2017,08:00,44.300,R,ugm-3 (TEOM FDMS),207.47339,R,ugm-3,58.97672,R,ugm-3,377.09814,R,ugm-3,40.000,R,ugm-3 (TEOM FDMS),46.900,R,ugm-3 (TEOM FDMS),51.100,R,ugm-3 (TEOM FDMS),4.300,R,ugm-3 (TEOM FDMS),4.300,R,ugm-3 (TEOM FDMS)
05-01-2017,09:00,42.100,R,ugm-3 (TEOM FDMS),236.92807,R,ugm-3,69.28175,R,ugm-3,432.56638,R,ugm-3,37.600,R,ugm-3 (TEOM FDMS),31.100,R,ugm-3 (TEOM FDMS),33.700,R,ugm-3 (TEOM FDMS),4.500,R,ugm-3 (TEOM FDMS),2.700,R,ugm-3 (TEOM FDMS)
05-01-2017,10:00,41.300,R,ugm-3 (TEOM FDMS),271.45582,R,ugm-3,79.25018,R,ugm-3,495.47663,R,ugm-3,38.400,R,ugm-3 (TEOM FDMS),26.200,R,ugm-3 (TEOM FDMS),29.800,R,ugm-3 (TEOM FDMS),2.900,R,ugm-3 (TEOM FDMS),3.700,R,ugm-3 (TEOM FDMS)